OBJECT B, 63209

Orbit data source: Space-Track

You're viewing an Uncataloged Satellite

Recently launched and/or uncataloged satellites may have evolving metadata. Metadata may include but not limited to: Owner, Maufacturer, Bus, Motor, and Mission.

OBJECT B, 63209 is a Chinese satellite in SSO that was launched on Sat, 15 Mar 2025 UTC via a CHANG ZHENG 2D launch vehicle from the Jiuquan Satellite Launch Center, China (JSC). Unknown objects in Earth's orbit typically refer to objects detected orbiting the Earth but have not yet been identified or cataloged. These objects could be anything from previously untracked satellites, spent rocket stages, debris from satellite collisions, or even natural meteoroids temporarily captured by Earth's gravity.

Loading next visibility...
Identifier
63209, 2025-051B
Orbit
SSO
Last TLE update
9 hours ago
Origin
Flag of CNTLCJ/ZZQY (CN / PRC)
Manufacturer
ZZQY
Mission
Operational Commercial Imaging
Bus & Motor
Unknown
Mass
~100 kg wet, ~100 kg dry
Launch date (UTC)
2025-03-15 (4 months ago)
Launch vehicle
CHANG ZHENG 2D
Launch site
Jiuquan Satellite Launch Center, China (JSC)
Object type
Unknown
Shape & HBR
Box + 2 Pan, 0.5 m
Radar Cross Section
0.120 m², Medium (>0.1 m² and < 1m²)

Expand to show TLE details & history

TLE from 9 hours ago
0 OBJECT B
1 63209U 25051B   25187.55963918  .00013139  00000-0  47755-3 0  9990
2 63209  97.4844 264.1774 0007378 240.9197 119.1304 15.28378729 17263
Epoch: 2025-07-06T13:25Z
TLE epoch observation values (Epoch: 2025-07-06T13:25:52.825Z)
Latitude
-0°
Longitude
137.92571°
Altitude
486.225 km
Speed
7.621 km/s
True Right ascension
17h 36m 42s
True Declination
0° 00' 00"
Sunlit
Object was in full shadow at epoch
Visualization orbit readout
Latitude
-77.08207°
Longitude
-76.42295°
Altitude
503.52 km
Speed
7.614 km/s
Apparent Right ascension
23h 27m 16s
Apparent Declination
-62° 45' 29"
Sunlit
Object is in daylight
Visualization observer readout
Local Sidereal Time
10:25:17
Azimuth
197.045° SSW
Elevation
-65.343°
Doppler factor
1
Orbital elements
Apogee altitude
482.675 km
Perigee altitude
472.558 km
Semi-major axis
6,855.754 km
Eccentricity
0.00074
Inclination
97.4844°
RAAN
264.1774°
Arg. of periapsis
240.9197°
True anomaly
Unknown
Mean anomaly
119.1304°
Eccentric anomaly
Unknown
Mean motion
3.82349 °/min
Orbital period
94.15 mins
BSTAR
0.00047755
Loading maneuver chart data...
Loading SW <> Apogee altitude chart data...
Loading historical data...
Loading historical data...
Loading historical data...
Loading historical data...
Loading historical data...
Loading historical data...
Loading historical data...
Other satellites on launch #51 in the year 2025 (2025-03-15 UTC)

OBJECT B Visibility forecast

Observer location: undefined°, undefined°

Span
Click to sort rows by Start time (UTC) header in descending order
Start Az.
Max El. time (UTC)
Max El. Az.
Max El.
End time (UTC)
End Az.
6 mins2025-07-07 05:16:09.652Z173.754° S2025-07-07 05:19:09.652Z263.93° W43.83°2025-07-07 05:22:09.652Z343.238° N
5 mins2025-07-07 18:17:09.652Z354.605° N2025-07-07 18:19:09.652Z292.537° NW38.44°2025-07-07 18:22:09.652Z210.374° SW
|